{"data":{"norad_id":65640,"epoch":"2026-05-25T04:31:27.143904Z","epoch_age_seconds":58136,"freshness":"FRESH","line1":"1 65640U 25210U   26145.18850861  .00030482  00000+0  90976-3 0  9996","line2":"2 65640  53.1604 311.0251 0001136  49.4964 310.6137 15.34395151 39451","mean_motion":15.34395151,"eccentricity":0.0001136,"inclination_deg":53.1604,"raan_deg":311.0251,"arg_perigee_deg":49.4964,"mean_anomaly_deg":310.6137,"bstar":0.00090976,"rev_number":3945,"period_min":93.848054659292,"perigee_km":461.94053140642,"apogee_km":463.49477358346,"semimajor_km":6840.8546524949,"source":"CELESTRAK","updated_at":"2026-05-25T13:38:20.884862Z"}}